Find Starlink 32639

NORAD ID: 62153 Int'l Des: 2024-224 Owner: SPXS Country: US Constellation: starlink operational
LEOCIRCULAR

現在のビュー

3D地球を読み込み中...

About Starlink 32639

Starlink 32639 (NORAD 62153) is a starlink constellation satellite (v2 mini) launched Nov 30, 2024 by SPXS of US. It operates in LEO, CIRCULAR orbit with a mass of 730.00 kg.

次回通過

Passes for default location (London). Set your location on the main map for personalized predictions.

高度履歴

Loading altitude history...

軌道要素

1 62153U 24224Q 26235.85616162 .00007259 00000-0 27288-3 0 9997
2 62153 43.0056 294.2336 0000795 286.3951 73.6813 15.27599032 97884
Epoch: Aug 23, 2026 • Age: 12 hours

現在のステータス

高度 495.1 km
遠地点 / 近地点 N/A
速度 7.62 km/s
衛星直下点 -41.54°S, 116.3°E
打ち上げ日 Nov 30, 2024
運用期間 1.7 years
タイプ internet

技術仕様

分類 Payload
質量 730.00 kg
乾燥質量 700.00 kg
総質量 730.00 kg
長さ 0.30 m
直径 4.10 m
スパン 29.00 m
形状 Box + pan
製造者 SPXS
バスタイプ Starlink V2M
フェーズステータス In Orbit
所有者/国 SPXS/US

Most Searched